| time (UTC) | temp C | wind direction | speed KPH | gust KPH | rain 1hr cm | rain 24hr cm | rain mn cm | humidity % | barometer mb |
| 20260503224555 | 17 | 153 | 14.5 | 38.6 | 0.00 | 0.00 | 0.00 | 26 | 1003.2 |
| 20260503223052 | 18 | 142 | 17.7 | 35.4 | 0.00 | 0.00 | 0.00 | 26 | 1003.3 |
| 20260503221550 | 18 | 135 | 22.5 | 37.0 | 0.00 | 0.00 | 0.00 | 27 | 1003.4 |
| 20260503220053 | 18 | 128 | 17.7 | 37.0 | 0.00 | 0.00 | 0.00 | 27 | 1003.2 |
| 20260503214550 | 18 | 157 | 17.7 | 33.8 | 0.00 | 0.00 | 0.00 | 27 | 1003.3 |
| 20260503213109 | 18 | 159 | 17.7 | 30.6 | 0.00 | 0.00 | 0.00 | 27 | 1003.3 |
| 20260503211611 | 18 | 153 | 11.3 | 32.2 | 0.00 | 0.00 | 0.00 | 28 | 1003.4 |
| 20260503210052 | 17 | 124 | 24.1 | 40.2 | 0.00 | 0.00 | 0.00 | 27 | 1003.4 |
| 20260503204555 | 17 | 141 | 20.9 | 32.2 | 0.00 | 0.00 | 0.00 | 28 | 1003.6 |
| 20260503203052 | 17 | 151 | 24.1 | 38.6 | 0.00 | 0.00 | 0.00 | 28 | 1003.9 |
| 20260503201547 | 17 | 157 | 16.1 | 32.2 | 0.00 | 0.00 | 0.00 | 27 | 1004.0 |
| 20260503200058 | 17 | 149 | 22.5 | 33.8 | 0.00 | 0.00 | 0.00 | 28 | 1004.2 |
| 20260503194603 | 17 | 155 | 20.9 | 37.0 | 0.00 | 0.00 | 0.00 | 27 | 1004.3 |
| 20260503193141 | 17 | 165 | 17.7 | 35.4 | 0.00 | 0.00 | 0.00 | 27 | 1004.5 |
| 20260503191549 | 16 | 165 | 30.6 | 41.8 | 0.00 | 0.00 | 0.00 | 26 | 1004.6 |
| 20260503190050 | 16 | 150 | 22.5 | 45.1 | 0.00 | 0.00 | 0.00 | 25 | 1004.7 |
| 20260503184559 | 16 | 151 | 16.1 | 35.4 | 0.00 | 0.00 | 0.00 | 23 | 1004.8 |
| 20260503183050 | 16 | 148 | 25.7 | 38.6 | 0.00 | 0.00 | 0.00 | 21 | 1005.1 |
| 20260503181608 | 16 | 144 | 25.7 | 38.6 | 0.00 | 0.00 | 0.00 | 21 | 1005.3 |
| 20260503180107 | 16 | 163 | 25.7 | 46.7 | 0.00 | 0.00 | 0.00 | 22 | 1005.5 |
| 20260503174557 | 16 | 165 | 19.3 | 43.5 | 0.00 | 0.00 | 0.00 | 25 | 1005.4 |
| 20260503173059 | 15 | 161 | 25.7 | 41.8 | 0.00 | 0.00 | 0.00 | 21 | 1005.5 |
| 20260503171551 | 15 | 142 | 25.7 | 43.5 | 0.00 | 0.00 | 0.00 | 22 | 1005.6 |
| 20260503081549 | 7 | 163 | 0.0 | 1.6 | 0.00 | 0.00 | 0.00 | 77 | 1005.6 |
| 20260503071557 | 10 | 163 | 1.6 | 11.3 | 0.00 | 0.00 | 0.00 | 69 | 1006.2 |
| 20260503054549 | 9 | 163 | 6.4 | 12.9 | 0.00 | 0.00 | 0.00 | 79 | 1007.1 |
| 20260503053048 | 9 | 163 | 8.0 | 16.1 | 0.00 | 0.00 | 0.00 | 82 | 1007.2 |
| 20260503051557 | 10 | 163 | 3.2 | 9.7 | 0.00 | 0.00 | 0.00 | 79 | 1007.3 |
| 20260503050057 | 10 | 163 | 1.6 | 6.4 | 0.00 | 0.00 | 0.00 | 80 | 1007.5 |
| 20260503044602 | 10 | 0 | 0.0 | 1.6 | 0.00 | 0.00 | 0.00 | 78 | 1007.8 |
| 20260503043058 | 10 | 0 | 0.0 | 3.2 | 0.00 | 0.00 | 0.00 | 76 | 1007.8 |
| 20260503041550 | 10 | 0 | 0.0 | 9.7 | 0.00 | 0.00 | 0.00 | 77 | 1008.0 |
| 20260503040057 | 11 | 163 | 6.4 | 9.7 | 0.00 | 0.00 | 0.00 | 73 | 1007.8 |
| 20260503034559 | 11 | 163 | 1.6 | 6.4 | 0.00 | 0.00 | 0.00 | 69 | 1008.5 |
| 20260503033053 | 12 | 163 | 1.6 | 6.4 | 0.00 | 0.00 | 0.00 | 66 | 1008.6 |
| 20260503031550 | 12 | 163 | 3.2 | 17.7 | 0.00 | 0.00 | 0.00 | 63 | 1008.9 |
| 20260503030123 | 12 | 163 | 11.3 | 27.4 | 0.00 | 0.00 | 0.00 | 59 | 1009.0 |
| 20260503024550 | 13 | 160 | 14.5 | 25.7 | 0.00 | 0.00 | 0.00 | 55 | 1009.1 |
| 20260503023048 | 13 | 157 | 12.9 | 25.7 | 0.00 | 0.00 | 0.00 | 52 | 1009.1 |
| 20260503021548 | 13 | 155 | 14.5 | 32.2 | 0.00 | 0.00 | 0.00 | 50 | 1009.0 |
| 20260503020045 | 14 | 149 | 17.7 | 32.2 | 0.00 | 0.00 | 0.00 | 48 | 1009.0 |
| 20260503014601 | 14 | 160 | 16.1 | 37.0 | 0.00 | 0.00 | 0.00 | 46 | 1008.8 |
| 20260503013052 | 15 | 151 | 16.1 | 33.8 | 0.00 | 0.00 | 0.00 | 43 | 1008.8 |
| 20260503011554 | 15 | 138 | 19.3 | 30.6 | 0.00 | 0.00 | 0.00 | 41 | 1008.6 |
| 20260503010104 | 15 | 121 | 19.3 | 38.6 | 0.00 | 0.00 | 0.00 | 39 | 1008.5 |
| 20260503004549 | 15 | 104 | 8.0 | 17.7 | 0.00 | 0.00 | 0.00 | 38 | 1008.3 |
| 20260503003056 | 15 | 104 | 9.7 | 16.1 | 0.00 | 0.00 | 0.00 | 39 | 1008.4 |
| 20260503001548 | 16 | 0 | 4.8 | 14.5 | 0.00 | 0.00 | 0.00 | 39 | 1008.5 |
| 20260503000053 | 16 | 104 | 8.0 | 16.1 | 0.00 | 0.00 | 0.00 | 39 | 1008.5 |
| 20260502234547 | 16 | 104 | 8.0 | 14.5 | 0.00 | 0.00 | 0.00 | 38 | 1008.7 |
| 20260502233052 | 16 | 104 | 11.3 | 20.9 | 0.00 | 0.00 | 0.00 | 37 | 1008.9 |
| 20260502231544 | 16 | 104 | 12.9 | 32.2 | 0.00 | 0.00 | 0.00 | 37 | 1009.0 |
| 20260502230045 | 16 | 104 | 9.7 | 19.3 | 0.00 | 0.00 | 0.00 | 36 | 1009.1 |